Lid_Strength_Index
16 14 14 14 14 14 15 15 17 15 15 13 11 11 10 10 9 9 9 8 7 6 5 5 4 4 3 2 2 2 2 3 4 5 7 8 9 9 9 9 9 10 11 11
18 15 15 16 15 14 14 13 13 13 14 10 10 9 10 10 9 9 9 7 6 5 5 5 3 3 3 3 3 2 2 6 5 7 9 10 9 9 11 10 11 11 11 12
20 16 16 18 16 15 14 13 13 15 12 9 10 11 10 9 8 8 7 6 6 5 5 4 3 3 3 4 2 2 3 8 10 10 12 11 10 11 12 13 12 13 13 13
18 17 23 15 12 12 13 12 11 11 10 10 10 9 8 7 7 7 6 6 5 4 4 3 2 3 3 4 3 3 3 5 9 11 12 11 12 13 15 15 14 15 14 14
19 19 16 15 13 13 14 13 10 11 10 9 9 8 8 6 5 5 5 4 4 3 3 3 3 3 5 5 4 5 5 5 7 11 13 13 13 14 14 15 15 15 15 15
16 19 20 14 12 10 10 15 10 10 10 9 9 12 9 5 5 4 4 3 3 3 3 3 3 4 6 7 7 7 6 7 7 9 12 13 13 14 14 14 15 15 15 15
16 17 15 10 10 9 16 13 9 9 8 8 9 7 6 4 5 4 4 4 2 3 3 4 5 6 7 9 8 8 8 7 7 9 12 13 13 14 14 14 14 14 15 16
15 16 18 9 9 13 10 7 8 7 6 6 5 4 4 4 4 4 4 3 3 3 5 5 6 7 9 10 9 9 9 9 10 11 13 13 14 13 13 13 14 14 15 15
13 13 8 8 8 7 7 7 6 6 5 5 5 5 4 4 4 4 3 3 3 4 7 7 6 8 10 10 10 10 10 10 11 12 13 13 13 13 13 13 13 14 14 15
11 10 9 8 7 7 7 6 6 5 5 4 5 4 4 4 4 4 3 4 3 3 5 7 8 9 10 11 11 11 11 12 12 11 12 13 13 13 13 13 13 13 13 14
11 9 8 8 7 6 6 5 5 5 4 4 4 4 4 4 4 3 4 3 3 4 5 7 8 10 10 11 11 11 11 11 12 12 12 13 13 13 13 13 12 12 13 13
12 8 8 7 5 5 5 5 5 4 4 3 3 4 3 4 3 3 4 4 3 4 6 7 8 9 10 10 11 11 11 11 11 12 12 13 13 14 13 12 11 11 12 12
9 7 7 5 5 5 5 4 3 4 3 4 3 3 4 4 3 5 4 4 3 4 5 7 8 9 9 9 9 10 11 12 11 12 12 12 13 13 14 13 12 12 12 12
6 6 7 5 6 4 4 3 3 3 3 3 4 3 3 4 4 5 5 3 3 4 5 6 8 9 8 8 9 10 10 11 11 12 12 12 12 12 12 12 13 13 12 11
6 5 5 4 4 4 4 4 5 4 4 4 3 4 5 6 7 6 5 3 3 5 6 7 8 9 8 7 8 9 9 10 10 10 11 11 11 12 12 12 12 12 12 12
5 4 4 5 5 5 4 4 5 5 4 4 4 4 5 6 6 6 5 4 6 7 7 8 9 9 8 7 8 8 9 9 10 10 10 10 10 11 11 12 12 12 13 13
6 7 6 6 6 5 5 4 6 6 6 6 6 6 8 8 8 7 6 6 7 8 8 9 9 9 9 8 8 8 8 8 9 9 9 10 10 10 10 11 11 12 12 12
6 6 6 6 6 5 5 5 6 6 7 7 7 9 9 10 10 9 9 8 8 9 9 9 9 9 9 8 8 8 8 8 9 9 9 9 9 9 10 10 11 12 12 12
7 7 7 7 7 7 8 8 8 8 8 9 9 9 9 10 10 9 8 8 8 8 9 8 9 8 8 9 8 8 8 9 9 9 8 9 9 9 10 10 11 12 12 12
8 7 8 8 8 8 9 9 8 8 9 9 8 9 9 9 8 8 8 9 9 9 8 8 8 8 8 8 8 8 8 9 9 9 9 9 9 9 9 10 10 11 11 10
8 8 8 9 9 9 8 8 8 9 8 8 8 8 8 8 8 8 8 9 8 8 8 8 8 8 8 8 7 8 8 8 9 9 9 9 9 9 9 9 9 10 10 9
8 8 9 9 9 9 8 8 8 8 8 8 8 8 8 8 8 9 8 9 8 8 8 8 8 8 8 8 8 8 8 8 8 8 9 9 9 9 9 9 9 9 9 9
8 8 8 8 8 8 8 8 9 9 10 9 10 9 9 9 8 9 9 8 7 8 8 8 8 8 8 8 8 8 8 8 8 8 9 8 8 9 9 9 9 9 9 9
7 7 7 7 8 8 9 8 8 7 9 8 8 9 8 8 8 7 7 8 8 8 8 8 8 8 7 8 8 7 7 8 8 8 8 8 9 9 9 9 10 9 9 9
7 7 7 8 8 7 7 7 7 7 8 8 8 8 8 8 8 8 7 8 8 8 8 8 8 8 8 8 8 8 8 8 8 8 8 9 9 9 9 9 9 9 9 9
7 7 7 6 6 6 6 7 8 7 7 8 7 7 8 7 7 7 7 7 7 7 8 8 8 8 8 8 8 8 8 9 9 9 9 9 9 9 9 9 9 9 9 9
6 6 6 6 6 6 6 7 7 7 7 7 8 7 7 7 7 7 7 8 8 8 8 8 8 9 9 9 9 9 9 9 9 9 9 9 9 9 10 10 10 10 10 9